Weather History for KDDH - May, 2014

Change the Weather History Date:

Sunday, May 11, 2014

  Actual Average Record
Temperature  
Mean Temperature 59 °F 54 °F  
Max Temperature 72 °F 66 °F 87 °F (2015)
Min Temperature 46 °F 42 °F 32 °F (1999)
Degree Days  
Heating Degree Days 6 11  
Month to date heating degree days 120 141  
Since 1 July heating degree days 7113 6964  
Cooling Degree Days 0 0  
Month to date cooling degree days 4 0  
Year to date cooling degree days 8 3  
Growing Degree Days 12 (Base 50)    
Moisture  
Dew Point 37 °F    
Average Humidity 42    
Maximum Humidity 59    
Minimum Humidity 25    
Precipitation  
Precipitation 0.00 in 0.10 in 0.56 in (2003)
Month to date precipitation 0.49 1.11  
Year to date precipitation 10.96 12.52  
Sea Level Pressure  
Sea Level Pressure 29.97 in    
Wind  
Wind Speed 8 mph (WSW)    
Max Wind Speed 18 mph    
Max Gust Speed 30 mph    
Visibility 10 miles    
Events      
T = Trace of Precipitation, MM = Missing Value Source: NWS Daily Summary

Daily Weather History Graph

Daily Weather History Graph

Search for Another Location

Airport or City:

Trip Planner

Search our weather history database for the weather conditions in past years. The results will help you decide how hot, cold, wet, or windy it might be!

Date:

Astronomy

May. 11, 2014 Rise Set
Actual Time 5:34 AM EDT 8:04 PM EDT
Civil Twilight 5:02 AM EDT 8:37 PM EDT
Nautical Twilight 4:22 AM EDT 9:17 PM EDT
Astronomical Twilight 3:37 AM EDT 10:02 PM EDT
Moon 4:53 PM EDT (5/11) 3:43 AM EDT (5/11)
Length of Visible Light 15h 34m
Length of Day
14h 30m
Waxing Gibbous, 89% of the Moon is Illuminated
May 11
Waxing Gibbous
May 14
Full
May 21
Last Quarter
May 28
New
Jun 5
First Quarter

Hourly Weather History & Observations

Time (EDT) Temp. Dew Point Humidity Pressure Visibility Wind Dir Wind Speed Gust Speed Precip Events Conditions
12:54 AM 62.1 °F 34.0 °F 35% 29.87 in 10.0 mi Variable 4.6 mph - N/A   Mostly Cloudy
1:54 AM 59.0 °F 37.0 °F 44% 29.87 in 10.0 mi WSW 5.8 mph - N/A   Clear
2:54 AM 57.0 °F 39.0 °F 51% 29.87 in 10.0 mi WSW 5.8 mph - N/A   Clear
3:54 AM 57.0 °F 39.0 °F 51% 29.88 in 10.0 mi WSW 8.1 mph - N/A   Clear
4:54 AM 55.0 °F 39.9 °F 57% 29.89 in 10.0 mi WSW 6.9 mph - N/A   Clear
5:54 AM 54.0 °F 39.9 °F 59% 29.91 in 10.0 mi WSW 6.9 mph - N/A   Clear
6:54 AM 54.0 °F 39.9 °F 59% 29.94 in 10.0 mi SSW 4.6 mph - N/A   Clear
7:54 AM 57.0 °F 41.0 °F 55% 29.96 in 10.0 mi WSW 8.1 mph - N/A   Clear
8:54 AM 59.0 °F 39.9 °F 49% 29.99 in 10.0 mi WSW 12.7 mph 20.7 mph N/A   Clear
9:54 AM 62.1 °F 36.0 °F 38% 29.99 in 10.0 mi Variable 3.5 mph 17.3 mph N/A   Clear
10:54 AM 63.0 °F 34.0 °F 34% 29.99 in 10.0 mi WNW 10.4 mph 19.6 mph N/A   Clear
11:54 AM 66.0 °F 35.1 °F 32% 29.99 in 10.0 mi WNW 11.5 mph - N/A   Clear
12:54 PM 68.0 °F 35.1 °F 30% 29.99 in 10.0 mi West 12.7 mph 23.0 mph N/A   Clear
1:54 PM 69.1 °F 37.0 °F 31% 30.00 in 10.0 mi West 12.7 mph 24.2 mph N/A   Clear
2:54 PM 71.1 °F 37.0 °F 29% 29.99 in 10.0 mi WSW 12.7 mph 21.9 mph N/A   Clear
3:54 PM 71.1 °F 33.1 °F 25% 29.98 in 10.0 mi Variable 6.9 mph 23.0 mph N/A   Clear
4:54 PM 71.1 °F 36.0 °F 28% 29.99 in 10.0 mi WSW 10.4 mph 19.6 mph N/A   Clear
5:54 PM 70.0 °F 37.0 °F 30% 29.99 in 10.0 mi WSW 11.5 mph 17.3 mph N/A   Clear
6:54 PM 69.1 °F 37.9 °F 32% 30.01 in 10.0 mi West 9.2 mph 19.6 mph N/A   Clear
7:54 PM 66.0 °F 36.0 °F 33% 30.03 in 10.0 mi WSW 6.9 mph - N/A   Clear
8:54 PM 64.0 °F 36.0 °F 35% 30.05 in 10.0 mi WSW 8.1 mph - N/A   Clear
9:54 PM 62.1 °F 35.1 °F 37% 30.06 in 10.0 mi SW 5.8 mph - N/A   Clear
10:54 PM 57.0 °F 36.0 °F 45% 30.06 in 10.0 mi Variable 3.5 mph - N/A   Clear